EW4725 Weather Reports


time (UTC)temp
C
wind
direction
speed
KPH
gust
KPH
rain 1hr
cm
rain 24hr
cm
rain mn
cm
humidity
%
barometer
mb
20260510114916 15 125 3.2 4.8 0.00 0.00 0.00 88 1012.6
20260510114416 15 215 3.2 6.4 0.00 0.00 0.00 88 1012.6
20260510113916 15 0.0 1.6 0.00 0.00 0.00 89 1012.6
20260510113416 15 0.0 1.6 0.00 0.00 0.00 89 1012.5
20260510112916 15 0.0 1.6 0.00 0.00 0.00 89 1012.5
20260510112436 15 0.0 1.6 0.00 0.00 0.00 89 1012.5
20260510111916 15 125 1.6 3.2 0.00 0.00 0.00 89 1012.5
20260510111416 15 0.0 0.0 0.00 0.00 0.00 90 1012.5
20260510110916 15 125 1.6 1.6 0.00 0.00 0.00 90 1012.5
20260510110416 15 0.0 0.0 0.00 0.00 0.00 90 1012.5
20260510105916 15 0.0 1.6 0.00 0.00 0.00 90 1012.6
20260510105537 15 0.0 0.0 0.00 0.00 0.00 90 1012.6
20260510104916 15 0.0 0.0 0.00 0.00 0.00 90 1012.5
20260510104436 15 0.0 0.0 0.00 0.00 0.00 90 1012.6
20260510103916 15 125 1.6 3.2 0.00 0.00 0.00 90 1012.6
20260510103416 15 125 3.2 4.8 0.00 0.00 0.00 90 1012.6
20260510102956 15 0.0 0.0 0.00 0.00 0.00 91 1012.6
20260510102416 15 148 3.2 4.8 0.00 0.00 0.00 90 1012.6
20260510101916 15 260 3.2 3.2 0.00 0.00 0.00 90 1012.7
20260510101436 15 0.0 0.0 0.00 0.00 0.00 91 1012.7
20260510100916 15 238 1.6 3.2 0.00 0.00 0.00 90 1012.7
20260510100416 15 170 1.6 4.8 0.00 0.00 0.00 90 1012.8
20260510095936 15 170 3.2 4.8 0.00 0.00 0.00 90 1012.7
20260510095416 15 170 3.2 6.4 0.00 0.00 0.00 91 1012.8
20260510094916 15 170 3.2 4.8 0.00 0.00 0.00 91 1012.7
20260510094416 15 148 3.2 3.2 0.00 0.00 0.00 91 1012.7
20260510093916 15 0.0 1.6 0.00 0.00 0.00 91 1012.6
20260510093416 15 0.0 0.0 0.00 0.00 0.00 91 1012.6
20260510092916 15 0.0 1.6 0.00 0.00 0.00 91 1012.7
20260510092416 15 103 4.8 6.4 0.00 0.00 0.00 91 1012.7
20260510091916 15 215 1.6 1.6 0.00 0.00 0.00 90 1012.7
20260510091416 15 148 1.6 3.2 0.00 0.00 0.00 90 1012.7
20260510090916 15 148 1.6 3.2 0.00 0.00 0.00 90 1012.7
20260510090416 15 125 3.2 4.8 0.00 0.00 0.00 90 1012.8
20260510085916 15 125 4.8 6.4 0.00 0.00 0.00 90 1012.7
20260510085416 15 125 3.2 4.8 0.00 0.00 0.00 90 1012.7
20260510084916 15 125 3.2 6.4 0.00 0.00 0.00 90 1012.7
20260510084416 15 0.0 1.6 0.00 0.00 0.00 90 1012.7
20260510083916 15 170 1.6 4.8 0.00 0.00 0.00 90 1012.8
20260510083436 15 125 3.2 4.8 0.00 0.00 0.00 90 1012.7
20260510082916 15 0.0 1.6 0.00 0.00 0.00 90 1012.7
20260510082416 15 0.0 0.0 0.00 0.00 0.00 90 1012.8
20260510081915 15 0.0 0.0 0.00 0.00 0.00 90 1012.9
20260510081416 15 125 4.8 6.4 0.00 0.00 0.00 89 1012.9
20260510080916 16 170 1.6 1.6 0.00 0.00 0.00 90 1012.9
20260510080416 16 0.0 0.0 0.00 0.00 0.00 90 1012.9
20260510075916 16 148 3.2 4.8 0.00 0.00 0.00 90 1012.9
20260510075416 16 125 3.2 6.4 0.00 0.00 0.00 90 1013.0
20260510074916 16 148 3.2 6.4 0.00 0.00 0.00 89 1013.0
20260510074416 16 103 3.2 4.8 0.00 0.00 0.00 89 1013.0
20260510073915 16 125 6.4 9.7 0.00 0.00 0.00 89 1013.1
20260510073415 16 125 4.8 6.4 0.00 0.00 0.00 89 1013.1
20260510072915 16 148 3.2 6.4 0.00 0.00 0.00 89 1013.1
20260510072416 16 170 3.2 4.8 0.00 0.00 0.00 89 1013.0
20260510071955 16 0.0 3.2 0.00 0.00 0.00 89 1013.1
20260510071415 16 0.0 0.0 0.00 0.00 0.00 89 1013.1
20260510070936 16 0.0 1.6 0.00 0.00 0.00 89 1013.0
20260510070415 16 103 1.6 3.2 0.00 0.00 0.00 90 1013.1
20260510065916 16 125 3.2 3.2 0.00 0.00 0.00 90 1013.1
20260510065416 16 148 1.6 4.8 0.00 0.00 0.00 90 1013.1
20260510064916 16 125 6.4 8.0 0.00 0.00 0.00 90 1013.1
20260510064416 16 148 3.2 4.8 0.00 0.00 0.00 90 1013.1
20260510063916 16 0.0 0.0 0.00 0.00 0.00 90 1013.2
20260510063416 15 148 3.2 3.2 0.00 0.00 0.00 90 1013.1
20260510062936 15 148 1.6 3.2 0.00 0.00 0.00 91 1013.1
20260510062416 15 0.0 1.6 0.00 0.00 0.00 91 1013.1
20260510061916 15 125 3.2 4.8 0.00 0.00 0.00 91 1013.1
20260510061416 15 305 1.6 1.6 0.00 0.00 0.00 91 1013.1
20260510060936 15 0.0 0.0 0.00 0.00 0.00 91 1013.1
20260510060416 15 283 3.2 3.2 0.00 0.00 0.00 91 1013.1
20260510055916 15 0.0 1.6 0.00 0.00 0.00 91 1013.1
20260510055416 15 0.0 0.0 0.00 0.00 0.00 91 1013.1
20260510054956 15 238 1.6 3.2 0.00 0.00 0.00 91 1013.2
20260510054436 15 238 1.6 1.6 0.00 0.00 0.00 91 1013.2
20260510053916 15 0.0 0.0 0.00 0.00 0.00 91 1013.2
20260510053416 15 0.0 0.0 0.00 0.00 0.00 91 1013.2
20260510052916 15 0.0 1.6 0.00 0.00 0.00 91 1013.3
20260510052416 15 0.0 1.6 0.00 0.00 0.00 91 1013.1
20260510051916 15 328 1.6 4.8 0.00 0.00 0.00 91 1013.1
20260510051436 15 0.0 0.0 0.00 0.00 0.00 91 1013.1
20260510050916 15 283 1.6 3.2 0.00 0.00 0.00 91 1013.1
20260510050436 15 0.0 1.6 0.00 0.00 0.00 91 1013.2
20260510045916 15 283 1.6 3.2 0.00 0.00 0.00 91 1013.2
20260510045416 15 328 1.6 4.8 0.00 0.00 0.00 91 1013.2
20260510044916 15 260 3.2 4.8 0.00 0.00 0.00 91 1013.1
20260510044416 15 305 3.2 4.8 0.00 0.00 0.00 91 1013.0
20260510043916 15 305 1.6 3.2 0.00 0.00 0.00 91 1013.1
20260510043416 15 283 4.8 6.4 0.00 0.00 0.00 91 1013.0
20260510042936 15 260 3.2 4.8 0.00 0.00 0.00 90 1013.0
20260510042416 15 305 3.2 6.4 0.00 0.00 0.00 90 1012.9
20260510041916 15 305 3.2 4.8 0.00 0.00 0.00 90 1012.9
20260510041416 15 260 4.8 6.4 0.00 0.00 0.00 90 1012.9
20260510040916 15 283 3.2 4.8 0.00 0.00 0.00 90 1012.8
20260510040416 15 283 3.2 4.8 0.00 0.00 0.00 90 1012.7
20260510035916 15 305 3.2 6.4 0.00 0.00 0.00 90 1012.7
20260510035436 15 0.0 1.6 0.00 0.00 0.00 90 1012.6
20260510034916 15 283 3.2 4.8 0.00 0.00 0.00 90 1012.6
20260510034436 15 260 4.8 6.4 0.00 0.00 0.00 89 1012.5
20260510033916 16 305 4.8 9.7 0.00 0.00 0.00 89 1012.4
20260510033416 16 305 1.6 3.2 0.00 0.00 0.00 89 1012.2
20260510032916 16 283 6.4 9.7 0.00 0.00 0.00 89 1012.2
20260510032416 16 283 4.8 8.0 0.00 0.00 0.00 89 1012.1
20260510031916 16 305 4.8 6.4 0.00 0.00 0.00 88 1012.1
20260510031416 16 305 4.8 8.0 0.00 0.00 0.00 88 1012.1
20260510030916 16 260 4.8 6.4 0.00 0.00 0.00 88 1012.0
20260510030416 16 283 4.8 6.4 0.00 0.00 0.00 88 1011.9
20260510025916 16 283 4.8 6.4 0.00 0.00 0.00 87 1011.9
20260510025416 16 283 4.8 9.7 0.00 0.00 0.00 87 1011.9
20260510024916 16 305 4.8 8.0 0.00 0.00 0.00 86 1011.8
20260510024416 16 305 3.2 6.4 0.00 0.00 0.00 86 1011.8
20260510023915 17 260 4.8 8.0 0.00 0.00 0.00 85 1011.7
20260510023416 17 305 6.4 11.3 0.00 0.00 0.00 84 1011.7
20260510022915 17 260 6.4 8.0 0.00 0.00 0.00 84 1011.6
20260510022416 17 305 6.4 9.7 0.00 0.00 0.00 84 1011.6
20260510021916 17 283 4.8 6.4 0.00 0.00 0.00 83 1011.6
20260510021416 17 283 6.4 9.7 0.00 0.00 0.00 83 1011.5
20260510020935 17 260 9.7 14.5 0.00 0.00 0.00 81 1011.5
20260510020415 18 305 6.4 12.9 0.00 0.00 0.00 81 1011.5
20260510015916 18 283 6.4 11.3 0.00 0.00 0.00 81 1011.4
20260510015416 18 305 8.0 11.3 0.00 0.00 0.00 80 1011.4
20260510014916 18 260 8.0 11.3 0.00 0.00 0.00 80 1011.3
20260510014415 18 283 9.7 14.5 0.00 0.00 0.00 78 1011.4
20260510013915 18 283 8.0 12.9 0.00 0.00 0.00 78 1011.3
20260510013415 19 305 6.4 9.7 0.00 0.00 0.00 77 1011.3
20260510012915 19 283 11.3 16.1 0.00 0.00 0.00 75 1011.2
20260510012415 19 283 6.4 9.7 0.00 0.00 0.00 76 1011.2
20260510011916 20 283 9.7 14.5 0.00 0.00 0.00 75 1011.2
20260510011416 20 283 9.7 19.3 0.00 0.00 0.00 74 1011.1
20260510010915 20 283 8.0 12.9 0.00 0.00 0.00 74 1011.1
20260510010415 21 260 6.4 11.3 0.00 0.00 0.00 72 1011.0
20260510005956 21 283 6.4 11.3 0.00 0.00 0.00 73 1011.0
20260510005415 21 260 8.0 12.9 0.00 0.00 0.00 71 1011.1
20260510004916 21 283 12.9 20.9 0.00 0.00 0.00 70 1011.1
20260510004416 21 283 9.7 16.1 0.00 0.00 0.00 69 1011.1
20260510003916 21 283 9.7 12.9 0.00 0.00 0.00 68 1011.1
20260510003415 21 260 8.0 12.9 0.00 0.00 0.00 68 1011.0
20260510002916 21 305 9.7 12.9 0.00 0.00 0.00 68 1011.1
20260510002415 22 283 11.3 17.7 0.00 0.00 0.00 67 1011.1
20260510001915 21 283 6.4 12.9 0.00 0.00 0.00 68 1011.1
20260510001415 21 260 9.7 14.5 0.00 0.00 0.00 68 1011.2
20260510000915 22 283 12.9 16.1 0.00 0.00 0.00 68 1011.1
20260510000418 22 260 11.3 14.5 0.00 0.00 0.00 67 1011.2
20260509235936 22 283 9.7 16.1 0.00 0.00 0.00 67 1011.1
20260509235415 22 260 9.7 12.9 0.00 0.00 0.00 67 1011.2
20260509234915 22 283 11.3 16.1 0.00 0.00 0.00 66 1011.2
20260509234415 22 260 9.7 12.9 0.00 0.00 0.00 65 1011.2
20260509234016 23 260 11.3 14.5 0.00 0.00 0.00 64 1011.1
20260509233415 23 283 6.4 9.7 0.00 0.00 0.00 63 1011.1
20260509232936 23 283 8.0 11.3 0.00 0.00 0.00 63 1011.2
20260509232415 23 283 6.4 9.7 0.00 0.00 0.00 63 1011.1
20260509231915 23 283 6.4 9.7 0.00 0.00 0.00 63 1011.1
20260509231415 23 283 8.0 14.5 0.00 0.00 0.00 64 1011.2
20260509230916 23 283 4.8 6.4 0.00 0.00 0.00 63 1011.2
20260509230416 23 305 8.0 12.9 0.00 0.00 0.00 64 1011.2
20260509225915 23 260 6.4 11.3 0.00 0.00 0.00 64 1011.1
20260509225415 23 283 6.4 9.7 0.00 0.00 0.00 63 1011.2
20260509224935 23 260 6.4 11.3 0.00 0.00 0.00 63 1011.2
20260509224415 23 260 8.0 12.9 0.00 0.00 0.00 63 1011.2
20260509223915 23 305 8.0 11.3 0.00 0.00 0.00 63 1011.3
20260509223415 23 170 6.4 11.3 0.00 0.00 0.00 63 1011.3
20260509222915 23 283 6.4 9.7 0.00 0.00 0.00 64 1011.4
20260509222435 23 260 8.0 12.9 0.00 0.00 0.00 64 1011.5
20260509221915 23 260 8.0 11.3 0.00 0.00 0.00 63 1011.6
20260509221415 24 260 4.8 8.0 0.00 0.00 0.00 63 1011.8
20260509220915 23 193 8.0 12.9 0.00 0.00 0.00 64 1011.8
20260509220435 23 148 8.0 11.3 0.00 0.00 0.00 64 1011.8
20260509215915 23 238 6.4 9.7 0.00 0.00 0.00 63 1012.0
20260509215415 24 148 9.7 12.9 0.00 0.00 0.00 63 1012.0
20260509214915 23 148 6.4 11.3 0.00 0.00 0.00 64 1011.9
20260509214415 23 170 3.2 8.0 0.00 0.00 0.00 63 1011.9
20260509213915 23 260 4.8 6.4 0.00 0.00 0.00 64 1011.9
20260509213415 23 215 4.8 8.0 0.00 0.00 0.00 64 1012.1
20260509212915 23 238 3.2 4.8 0.00 0.00 0.00 65 1012.1
20260509212435 23 215 3.2 6.4 0.00 0.00 0.00 65 1012.2
20260509211917 23 215 4.8 6.4 0.00 0.00 0.00 65 1012.4
20260509211417 23 170 8.0 11.3 0.00 0.00 0.00 65 1012.4
20260509210917 23 215 6.4 9.7 0.00 0.00 0.00 65 1012.4
20260509210417 23 260 6.4 9.7 0.00 0.00 0.00 65 1012.4
20260509205917 23 260 8.0 11.3 0.00 0.00 0.00 65 1012.5
20260509205415 23 148 4.8 8.0 0.00 0.00 0.00 65 1012.6
20260509204917 23 148 6.4 8.0 0.00 0.00 0.00 66 1012.6
20260509204417 22 125 3.2 4.8 0.00 0.00 0.00 67 1012.6
20260509203917 22 148 11.3 12.9 0.00 0.00 0.00 66 1012.6
20260509203417 23 148 8.0 11.3 0.00 0.00 0.00 65 1012.7
20260509202917 23 260 4.8 9.7 0.00 0.00 0.00 66 1012.7
20260509202437 22 170 4.8 8.0 0.00 0.00 0.00 68 1012.7
20260509201917 22 238 3.2 8.0 0.00 0.00 0.00 67 1012.8
20260509201417 22 215 4.8 9.7 0.00 0.00 0.00 67 1012.8
20260509200918 22 148 11.3 14.5 0.00 0.00 0.00 68 1012.8
20260509200417 22 125 9.7 14.5 0.00 0.00 0.00 68 1012.8
20260509195917 22 148 9.7 14.5 0.00 0.00 0.00 68 1012.9
20260509195415 22 148 9.7 12.9 0.00 0.00 0.00 67 1012.9
20260509194917 22 148 9.7 16.1 0.00 0.00 0.00 66 1012.9
20260509194417 23 148 3.2 17.7 0.00 0.00 0.00 66 1013.0
20260509193917 23 125 6.4 9.7 0.00 0.00 0.00 66 1013.1
20260509193437 23 170 6.4 11.3 0.00 0.00 0.00 66 1013.1
20260509192917 23 148 8.0 12.9 0.00 0.00 0.00 65 1013.1
20260509192417 23 170 6.4 9.7 0.00 0.00 0.00 66 1013.1
20260509191917 23 193 3.2 6.4 0.00 0.00 0.00 66 1013.2
20260509191417 22 148 4.8 9.7 0.00 0.00 0.00 67 1013.3
20260509190917 22 125 3.2 6.4 0.00 0.00 0.00 68 1013.4
20260509190417 22 148 4.8 6.4 0.00 0.00 0.00 69 1013.4
20260509185917 22 238 4.8 8.0 0.00 0.00 0.00 69 1013.4
20260509185417 22 283 4.8 8.0 0.00 0.00 0.00 68 1013.5
20260509184917 22 238 4.8 11.3 0.00 0.00 0.00 70 1013.5
20260509184417 22 260 6.4 9.7 0.00 0.00 0.00 70 1013.5
20260509183917 22 148 6.4 9.7 0.00 0.00 0.00 70 1013.6
20260509183537 22 260 8.0 8.0 0.00 0.00 0.00 69 1013.6
20260509182937 22 170 4.8 6.4 0.00 0.00 0.00 71 1013.6
20260509182417 21 215 3.2 8.0 0.00 0.00 0.00 71 1013.6
20260509181917 21 238 3.2 8.0 0.00 0.00 0.00 72 1013.6
20260509181417 21 328 1.6 3.2 0.00 0.00 0.00 72 1013.6
20260509180917 21 305 3.2 4.8 0.00 0.00 0.00 72 1013.6
20260509180417 21 170 3.2 4.8 0.00 0.00 0.00 73 1013.6
20260509175917 21 283 4.8 6.4 0.00 0.00 0.00 72 1013.8
20260509175417 21 215 1.6 4.8 0.00 0.00 0.00 73 1013.8
20260509174937 20 283 4.8 6.4 0.00 0.00 0.00 74 1013.9
20260509174417 20 148 1.6 3.2 0.00 0.00 0.00 75 1013.9
20260509173937 20 215 4.8 6.4 0.00 0.00 0.00 75 1013.9
20260509173417 19 58 3.2 4.8 0.00 0.00 0.00 78 1013.9
20260509172917 19 103 1.6 3.2 0.00 0.00 0.00 78 1013.8
20260509172437 19 125 6.4 9.7 0.00 0.00 0.00 78 1013.8
20260509171917 18 0.0 4.8 0.00 0.00 0.00 81 1013.8
20260509171417 18 125 1.6 3.2 0.00 0.00 0.00 80 1013.8
20260509170937 18 13 3.2 8.0 0.00 0.00 0.00 81 1013.7
20260509170417 18 58 3.2 4.8 0.00 0.00 0.00 82 1013.6
20260509165917 18 125 4.8 6.4 0.00 0.00 0.00 81 1013.6
20260509165416 18 238 1.6 6.4 0.00 0.00 0.00 82 1013.6
20260509164917 18 148 1.6 3.2 0.00 0.00 0.00 83 1013.7
20260509164417 17 0.0 1.6 0.00 0.00 0.00 83 1013.7
20260509163937 17 0.0 1.6 0.00 0.00 0.00 84 1013.7
20260509163457 17 170 1.6 4.8 0.00 0.00 0.00 84 1013.7
20260509162937 17 80 3.2 4.8 0.00 0.00 0.00 85 1013.7
20260509162417 17 170 1.6 3.2 0.00 0.00 0.00 85 1013.7
20260509161917 17 148 1.6 3.2 0.00 0.00 0.00 85 1013.7
20260509161417 17 125 4.8 6.4 0.00 0.00 0.00 85 1013.7
20260509160917 17 0.0 1.6 0.00 0.00 0.00 85 1013.7
20260509160417 17 0.0 0.0 0.00 0.00 0.00 86 1013.8
20260509155916 17 0.0 1.6 0.00 0.00 0.00 86 1013.8
20260509155417 17 35 1.6 3.2 0.00 0.00 0.00 86 1013.8
20260509154937 17 80 1.6 3.2 0.00 0.00 0.00 86 1013.8
20260509154417 17 0.0 1.6 0.00 0.00 0.00 87 1013.9
20260509153916 16 193 1.6 3.2 0.00 0.00 0.00 86 1013.8
20260509153416 16 148 4.8 8.0 0.00 0.00 0.00 86 1013.8
20260509152917 16 125 1.6 4.8 0.00 0.00 0.00 87 1013.8
20260509152417 16 0.0 1.6 0.00 0.00 0.00 87 1013.8
20260509151916 16 125 1.6 1.6 0.00 0.00 0.00 87 1013.8
20260509151436 16 125 1.6 3.2 0.00 0.00 0.00 88 1013.8
20260509150937 16 125 4.8 6.4 0.00 0.00 0.00 88 1013.8
20260509150416 16 125 3.2 4.8 0.00 0.00 0.00 88 1013.8
20260509145917 16 103 1.6 3.2 0.00 0.00 0.00 88 1013.8
20260509145457 16 0.0 0.0 0.00 0.00 0.00 88 1013.8
20260509144917 16 148 3.2 4.8 0.00 0.00 0.00 88 1013.9
20260509144416 16 103 3.2 6.4 0.00 0.00 0.00 88 1013.9
20260509143916 16 103 1.6 3.2 0.00 0.00 0.00 88 1013.8
20260509143436 16 125 3.2 4.8 0.00 0.00 0.00 88 1013.8
20260509142917 16 148 1.6 3.2 0.00 0.00 0.00 89 1013.8
20260509142416 16 0.0 1.6 0.00 0.00 0.00 89 1013.8
20260509141916 16 0.0 3.2 0.00 0.00 0.00 89 1013.8
20260509141416 16 125 3.2 3.2 0.00 0.00 0.00 89 1013.8
20260509140916 16 125 3.2 4.8 0.00 0.00 0.00 89 1013.6
20260509140416 16 0.0 1.6 0.00 0.00 0.00 89 1013.6
20260509135916 16 0.0 0.0 0.00 0.00 0.00 89 1013.6
20260509135417 16 0.0 0.0 0.00 0.00 0.00 89 1013.6
20260509134917 16 148 1.6 1.6 0.00 0.00 0.00 89 1013.7
20260509134416 16 193 3.2 3.2 0.00 0.00 0.00 89 1013.5
20260509133916 16 58 3.2 4.8 0.00 0.00 0.00 90 1013.5
20260509133417 16 0.0 0.0 0.00 0.00 0.00 89 1013.6
20260509132917 16 80 1.6 3.2 0.00 0.00 0.00 89 1013.5
20260509132417 16 125 1.6 1.6 0.00 0.00 0.00 89 1013.5
20260509131916 16 0.0 0.0 0.00 0.00 0.00 89 1013.3
20260509131416 16 125 1.6 3.2 0.00 0.00 0.00 90 1013.3
20260509130916 16 0.0 0.0 0.00 0.00 0.00 90 1013.2
20260509130416 15 125 1.6 4.8 0.00 0.00 0.00 90 1013.2
20260509125916 15 58 1.6 3.2 0.00 0.00 0.00 90 1013.2
20260509125416 15 103 1.6 1.6 0.00 0.00 0.00 90 1013.2
20260509124916 15 103 1.6 3.2 0.00 0.00 0.00 90 1013.2
20260509124416 15 125 3.2 4.8 0.00 0.00 0.00 90 1013.2
20260509123916 15 0.0 1.6 0.00 0.00 0.00 90 1013.1
20260509123416 15 125 1.6 3.2 0.00 0.00 0.00 90 1013.2
20260509122916 15 125 1.6 3.2 0.00 0.00 0.00 90 1013.1
20260509122416 15 0.0 0.0 0.00 0.00 0.00 90 1013.2
20260509121916 15 125 3.2 3.2 0.00 0.00 0.00 90 1013.1
20260509121416 15 148 1.6 3.2 0.00 0.00 0.00 90 1013.2
20260509120916 15 148 4.8 6.4 0.00 0.00 0.00 90 1013.2
20260509120416 15 148 3.2 3.2 0.00 0.00 0.00 90 1013.3
20260509115916 15 0.0 1.6 0.00 0.00 0.00 90 1013.3
20260509115416 15 0.0 0.0 0.00 0.00 0.00 90 1013.3